Time,TemperatureF,DewpointF,PressureIn,WindDirection,WindDirectionDegrees,WindSpeedMPH,WindSpeedGustMPH,Humidity,HourlyPrecipIn,Conditions,Clouds,dailyrainin,SoftwareType,DateUTC
2013-01-13 00:02:00,40.7,36.1,28.70,North,349,6.6,7.4,83,-99.99,,,-99.99,WSDL version 420,2013-01-13 05:02:00,
2013-01-13 00:04:00,40.5,35.9,28.70,North,360,6.3,7.4,84,-99.99,,,-99.99,WSDL version 420,2013-01-13 05:04:00,
2013-01-13 00:06:00,40.4,36.0,28.70,North,360,5.8,7.4,86,-99.99,,,-99.99,WSDL version 420,2013-01-13 05:06:00,
2013-01-13 00:12:00,40.1,36.5,28.67,North,353,6.9,9.8,88,-99.99,,,-99.99,WSDL version 420,2013-01-13 05:12:00,
2013-01-13 00:18:00,39.9,36.9,28.67,North,360,4.3,9.8,89,-99.99,,,-99.99,WSDL version 420,2013-01-13 05:18:00,
2013-01-13 00:20:00,39.9,36.9,28.67,NNW,345,7.5,8.9,89,-99.99,,,-99.99,WSDL version 420,2013-01-13 05:20:00,
2013-01-13 00:26:00,39.7,37.0,28.67,NNE,30,7.6,10.7,90,-99.99,,,-99.99,WSDL version 420,2013-01-13 05:26:00,
2013-01-13 00:32:00,39.3,36.7,28.67,North,360,7.4,8.5,90,-99.99,,,-99.99,WSDL version 420,2013-01-13 05:32:00,
2013-01-13 00:38:00,39.1,36.9,28.67,North,360,6.0,8.1,92,-99.99,,,-99.99,WSDL version 420,2013-01-13 05:38:00,
2013-01-13 00:44:00,39.0,36.9,28.67,NW,315,3.1,8.1,92,-99.99,,,-99.99,WSDL version 420,2013-01-13 05:44:00,
2013-01-13 00:50:00,39.0,37.0,28.67,North,353,3.4,6.5,93,-99.99,,,-99.99,WSDL version 420,2013-01-13 05:50:00,
2013-01-13 00:56:00,38.5,36.4,28.67,North,360,6.3,8.7,92,-99.99,,,-99.99,WSDL version 420,2013-01-13 05:56:00,
2013-01-13 01:02:00,38.1,36.1,28.67,North,360,6.3,8.7,92,-99.99,,,-99.99,WSDL version 420,2013-01-13 06:02:00,
2013-01-13 01:08:00,38.0,35.9,28.67,North,360,7.3,7.8,92,-99.99,,,-99.99,WSDL version 420,2013-01-13 06:08:00,
2013-01-13 01:14:00,37.8,35.8,28.64,North,360,7.8,7.8,93,-99.99,,,-99.99,WSDL version 420,2013-01-13 06:14:00,
2013-01-13 01:20:00,37.4,35.7,28.64,North,353,8.6,10.3,93,-99.99,,,-99.99,WSDL version 420,2013-01-13 06:20:00,
2013-01-13 01:26:00,37.3,35.3,28.64,NE,45,5.6,10.3,92,-99.99,,,-99.99,WSDL version 420,2013-01-13 06:26:00,
2013-01-13 01:32:00,37.1,35.4,28.64,North,360,6.9,10.3,94,-99.99,,,-99.99,WSDL version 420,2013-01-13 06:32:00,
2013-01-13 01:38:00,37.0,35.6,28.64,North,360,8.7,8.7,94,-99.99,,,-99.99,WSDL version 420,2013-01-13 06:38:00,
2013-01-13 01:44:00,37.1,35.6,28.64,North,360,8.7,8.7,94,-99.99,,,-99.99,WSDL version 420,2013-01-13 06:44:00,
2013-01-13 01:50:00,36.9,35.5,28.64,North,360,5.1,8.7,94,-99.99,,,-99.99,WSDL version 420,2013-01-13 06:50:00,
2013-01-13 01:56:00,36.6,35.2,28.64,North,360,8.7,8.7,94,-99.99,,,-99.99,WSDL version 420,2013-01-13 06:56:00,
2013-01-13 02:02:00,36.5,35.3,28.64,North,360,6.7,8.7,96,-99.99,,,-99.99,WSDL version 420,2013-01-13 07:02:00,
2013-01-13 02:08:00,36.4,35.3,28.64,North,11,6.0,8.7,97,-99.99,,,-99.99,WSDL version 420,2013-01-13 07:08:00,
2013-01-13 02:14:00,36.3,35.5,28.64,North,360,6.0,6.5,97,-99.99,,,-99.99,WSDL version 420,2013-01-13 07:14:00,
2013-01-13 02:20:00,36.1,35.1,28.64,NNW,338,4.0,6.0,97,-99.99,,,-99.99,WSDL version 420,2013-01-13 07:20:00,
2013-01-13 02:26:00,35.8,34.9,28.64,NE,45,11.0,11.0,97,-99.99,,,-99.99,WSDL version 420,2013-01-13 07:26:00,
2013-01-13 02:32:00,35.7,34.9,28.64,NE,45,6.5,11.0,97,-99.99,,,-99.99,WSDL version 420,2013-01-13 07:32:00,
2013-01-13 02:38:00,35.7,34.8,28.67,North,354,6.8,8.5,97,-99.99,,,-99.99,WSDL version 420,2013-01-13 07:38:00,
2013-01-13 02:44:00,35.6,35.1,28.67,North,360,7.8,8.5,98,-99.99,,,-99.99,WSDL version 420,2013-01-13 07:44:00,
2013-01-13 02:50:00,35.4,34.9,28.67,NE,45,4.7,7.8,98,-99.99,,,-99.99,WSDL version 420,2013-01-13 07:50:00,
2013-01-13 02:56:00,35.4,34.9,28.67,NNE,23,3.4,4.7,98,-99.99,,,-99.99,WSDL version 420,2013-01-13 07:56:00,
2013-01-13 03:02:00,35.3,34.7,28.67,North,11,4.1,4.9,98,-99.99,,,-99.99,WSDL version 420,2013-01-13 08:02:00,
2013-01-13 03:08:00,35.2,34.6,28.64,North,360,6.3,6.3,98,-99.99,,,-99.99,WSDL version 420,2013-01-13 08:08:00,
2013-01-13 03:14:00,35.3,34.8,28.64,North,360,2.9,6.3,99,-99.99,,,-99.99,WSDL version 420,2013-01-13 08:14:00,
2013-01-13 03:20:00,35.1,34.7,28.64,North,360,2.9,6.3,99,-99.99,,,-99.99,WSDL version 420,2013-01-13 08:20:00,
2013-01-13 03:26:00,35.2,34.9,28.64,NNW,338,6.3,6.3,99,-99.99,,,-99.99,WSDL version 420,2013-01-13 08:26:00,
2013-01-13 03:32:00,35.2,34.9,28.64,North,360,4.9,6.3,99,-99.99,,,-99.99,WSDL version 420,2013-01-13 08:32:00,
2013-01-13 03:38:00,35.2,34.9,28.64,NNE,23,3.4,4.9,99,-99.99,,,-99.99,WSDL version 420,2013-01-13 08:38:00,
2013-01-13 03:44:00,35.3,35.1,28.61,NW,315,7.8,7.8,99,-99.99,,,-99.99,WSDL version 420,2013-01-13 08:44:00,
2013-01-13 03:50:00,35.1,34.8,28.61,NNW,338,5.6,7.8,99,-99.99,,,-99.99,WSDL version 420,2013-01-13 08:50:00,
2013-01-13 03:56:00,35.1,34.8,28.61,North,360,4.0,7.8,99,-99.99,,,-99.99,WSDL version 420,2013-01-13 08:56:00,
2013-01-13 04:02:00,35.1,34.9,28.61,North,360,4.0,5.6,99,-99.99,,,-99.99,WSDL version 420,2013-01-13 09:02:00,
2013-01-13 04:08:00,35.0,34.7,28.61,North,360,4.0,4.0,99,-99.99,,,-99.99,WSDL version 420,2013-01-13 09:08:00,
2013-01-13 04:14:00,35.1,34.8,28.61,North,-999,-999.0,-999.0,99,-99.99,,,-99.99,WSDL version 420,2013-01-13 09:14:00,
2013-01-13 04:20:00,35.1,34.8,28.61,NNW,330,6.6,7.8,99,-99.99,,,-99.99,WSDL version 420,2013-01-13 09:20:00,
2013-01-13 04:26:00,35.3,35.3,28.61,NW,315,5.1,7.6,100,-99.99,,,-99.99,WSDL version 420,2013-01-13 09:26:00,
2013-01-13 04:32:00,35.1,35.0,28.61,North,360,7.6,7.6,99,-99.99,,,-99.99,WSDL version 420,2013-01-13 09:32:00,
2013-01-13 04:38:00,35.2,34.9,28.64,North,349,7.8,10.3,99,-99.99,,,-99.99,WSDL version 420,2013-01-13 09:38:00,
2013-01-13 04:44:00,34.9,34.6,28.64,North,360,5.4,10.3,99,-99.99,,,-99.99,WSDL version 420,2013-01-13 09:44:00,
2013-01-13 04:50:00,35.0,34.9,28.64,North,360,7.8,7.8,100,-99.99,,,-99.99,WSDL version 420,2013-01-13 09:50:00,
2013-01-13 04:56:00,34.8,34.7,28.61,North,360,7.8,7.8,100,-99.99,,,-99.99,WSDL version 420,2013-01-13 09:56:00,
2013-01-13 05:02:00,34.8,34.8,28.61,NW,315,7.4,7.8,100,-99.99,,,-99.99,WSDL version 420,2013-01-13 10:02:00,
2013-01-13 05:08:00,34.8,34.8,28.61,NW,315,5.4,7.4,100,-99.99,,,-99.99,WSDL version 420,2013-01-13 10:08:00,
2013-01-13 05:14:00,34.7,34.7,28.61,NW,315,5.4,5.4,100,-99.99,,,-99.99,WSDL version 420,2013-01-13 10:14:00,
2013-01-13 05:20:00,34.5,34.5,28.61,NW,315,5.4,5.4,100,-99.99,,,-99.99,WSDL version 420,2013-01-13 10:20:00,
2013-01-13 05:26:00,34.4,34.4,28.64,North,360,5.6,5.6,100,-99.99,,,-99.99,WSDL version 420,2013-01-13 10:26:00,
2013-01-13 05:32:00,34.4,34.1,28.64,North,360,5.6,5.6,99,-99.99,,,-99.99,WSDL version 420,2013-01-13 10:32:00,
2013-01-13 05:38:00,34.2,33.9,28.64,NNW,338,6.0,6.0,99,-99.99,,,-99.99,WSDL version 420,2013-01-13 10:38:00,
2013-01-13 05:44:00,34.0,33.9,28.64,NNE,23,7.8,7.8,100,-99.99,,,-99.99,WSDL version 420,2013-01-13 10:44:00,
2013-01-13 05:50:00,33.9,33.9,28.64,North,11,7.9,8.1,100,-99.99,,,-99.99,WSDL version 420,2013-01-13 10:50:00,
2013-01-13 05:56:00,34.0,34.0,28.64,NW,315,9.7,10.5,100,-99.99,,,-99.99,WSDL version 420,2013-01-13 10:56:00,
2013-01-13 06:02:00,34.0,34.0,28.64,WNW,293,10.5,10.5,100,-99.99,,,-99.99,WSDL version 420,2013-01-13 11:02:00,
2013-01-13 06:08:00,33.8,33.8,28.64,WNW,293,10.5,10.5,100,-99.99,,,-99.99,WSDL version 420,2013-01-13 11:08:00,
2013-01-13 06:14:00,33.8,33.8,28.64,North,360,4.3,10.5,100,-99.99,,,-99.99,WSDL version 420,2013-01-13 11:14:00,
2013-01-13 06:20:00,33.8,33.8,28.64,NNW,338,2.5,6.5,100,-99.99,,,-99.99,WSDL version 420,2013-01-13 11:20:00,
2013-01-13 06:26:00,33.9,33.9,28.64,North,360,4.3,4.3,100,-99.99,,,-99.99,WSDL version 420,2013-01-13 11:26:00,
2013-01-13 06:32:00,34.0,34.0,28.64,NE,45,3.4,4.3,100,-99.99,,,-99.99,WSDL version 420,2013-01-13 11:32:00,
2013-01-13 06:38:00,34.0,34.0,28.64,NE,45,2.9,3.4,100,-99.99,,,-99.99,WSDL version 420,2013-01-13 11:38:00,
2013-01-13 06:44:00,34.1,34.1,28.64,North,360,5.8,5.8,100,-99.99,,,-99.99,WSDL version 420,2013-01-13 11:44:00,
2013-01-13 06:50:00,34.2,34.2,28.64,WNW,293,3.6,5.8,100,-99.99,,,-99.99,WSDL version 420,2013-01-13 11:50:00,
2013-01-13 06:58:00,34.2,34.2,28.67,NNW,338,3.8,4.3,100,-99.99,,,-99.99,WSDL version 420,2013-01-13 11:58:00,
2013-01-13 07:04:00,34.2,34.2,28.67,North,360,5.6,5.6,100,-99.99,,,-99.99,WSDL version 420,2013-01-13 12:04:00,
2013-01-13 07:10:00,34.2,34.2,28.64,North,360,6.5,6.5,100,-99.99,,,-99.99,WSDL version 420,2013-01-13 12:10:00,
2013-01-13 07:16:00,34.3,34.3,28.64,North,360,6.5,6.5,100,-99.99,,,-99.99,WSDL version 420,2013-01-13 12:16:00,
2013-01-13 07:22:00,34.4,34.4,28.64,North,360,2.5,6.5,100,-99.99,,,-99.99,WSDL version 420,2013-01-13 12:22:00,
2013-01-13 07:28:00,34.5,34.5,28.64,NNW,338,2.9,2.9,100,-99.99,,,-99.99,WSDL version 420,2013-01-13 12:28:00,
2013-01-13 07:34:00,34.4,34.4,28.64,North,360,2.7,2.9,100,-99.99,,,-99.99,WSDL version 420,2013-01-13 12:34:00,
2013-01-13 07:40:00,34.5,34.5,28.67,NNW,338,1.6,3.1,100,-99.99,,,-99.99,WSDL version 420,2013-01-13 12:40:00,
2013-01-13 07:46:00,34.5,34.5,28.67,North,360,2.9,3.1,100,-99.99,,,-99.99,WSDL version 420,2013-01-13 12:46:00,
2013-01-13 07:52:00,34.4,34.4,28.67,North,360,2.5,2.9,100,-99.99,,,-99.99,WSDL version 420,2013-01-13 12:52:00,
2013-01-13 07:58:00,34.5,34.5,28.67,North,360,3.4,3.4,100,-99.99,,,-99.99,WSDL version 420,2013-01-13 12:58:00,
2013-01-13 08:04:00,34.5,34.5,28.67,WNW,293,1.3,3.4,100,-99.99,,,-99.99,WSDL version 420,2013-01-13 13:04:00,
2013-01-13 08:10:00,34.8,34.8,28.67,WNW,293,1.3,3.4,100,-99.99,,,-99.99,WSDL version 420,2013-01-13 13:10:00,
2013-01-13 08:16:00,34.8,34.8,28.67,NNW,338,1.6,2.5,100,-99.99,,,-99.99,WSDL version 420,2013-01-13 13:16:00,
2013-01-13 08:22:00,35.0,35.0,28.67,North,360,2.5,2.5,100,-99.99,,,-99.99,WSDL version 420,2013-01-13 13:22:00,
2013-01-13 08:28:00,35.1,35.1,28.67,North,360,0.0,2.5,100,-99.99,,,-99.99,WSDL version 420,2013-01-13 13:28:00,
2013-01-13 08:34:00,35.1,35.1,28.67,North,360,2.7,2.7,100,-99.99,,,-99.99,WSDL version 420,2013-01-13 13:34:00,
2013-01-13 08:40:00,35.2,35.2,28.70,NW,315,1.3,2.7,100,-99.99,,,-99.99,WSDL version 420,2013-01-13 13:40:00,
2013-01-13 08:46:00,35.1,35.1,28.70,WNW,293,0.0,1.3,100,-99.99,,,-99.99,WSDL version 420,2013-01-13 13:46:00,
2013-01-13 08:52:00,35.3,35.3,28.70,NW,315,0.0,0.0,100,-99.99,,,-99.99,WSDL version 420,2013-01-13 13:52:00,
2013-01-13 08:58:00,35.4,35.4,28.70,NW,304,1.6,3.1,100,-99.99,,,-99.99,WSDL version 420,2013-01-13 13:58:00,
2013-01-13 09:04:00,35.4,35.4,28.70,NW,315,0.0,3.1,100,-99.99,,,-99.99,WSDL version 420,2013-01-13 14:04:00,
2013-01-13 09:10:00,35.6,35.6,28.70,NW,304,1.3,2.7,100,-99.99,,,-99.99,WSDL version 420,2013-01-13 14:10:00,
2013-01-13 09:16:00,35.3,35.3,28.70,NW,315,0.0,2.7,100,-99.99,,,-99.99,WSDL version 420,2013-01-13 14:16:00,
2013-01-13 09:22:00,35.6,35.6,28.70,West,270,2.2,2.9,100,-99.99,,,-99.99,WSDL version 420,2013-01-13 14:22:00,
2013-01-13 09:28:00,35.6,35.6,28.70,NW,315,1.9,2.9,100,-99.99,,,-99.99,WSDL version 420,2013-01-13 14:28:00,
2013-01-13 09:34:00,35.5,35.5,28.70,WNW,293,2.7,3.6,100,-99.99,,,-99.99,WSDL version 420,2013-01-13 14:34:00,
2013-01-13 09:40:00,35.6,35.6,28.70,West,270,1.3,3.6,100,-99.99,,,-99.99,WSDL version 420,2013-01-13 14:40:00,
2013-01-13 09:45:00,35.6,35.6,28.70,WSW,255,1.0,2.7,100,-99.99,,,-99.99,WSDL version 420,2013-01-13 14:45:00,
2013-01-13 09:51:00,35.7,35.7,28.70,SW,225,0.0,3.4,100,-99.99,,,-99.99,WSDL version 420,2013-01-13 14:51:00,
2013-01-13 09:57:00,35.8,35.8,28.70,West,270,2.0,2.9,100,-99.99,,,-99.99,WSDL version 420,2013-01-13 14:57:00,
2013-01-13 10:03:00,35.9,35.9,28.70,WSW,248,2.5,5.4,100,-99.99,,,-99.99,WSDL version 420,2013-01-13 15:03:00,
2013-01-13 10:09:00,35.8,35.8,28.73,West,270,5.6,5.6,100,-99.99,,,-99.99,WSDL version 420,2013-01-13 15:09:00,
2013-01-13 10:15:00,35.9,35.9,28.73,WNW,293,0.0,5.6,100,-99.99,,,-99.99,WSDL version 420,2013-01-13 15:15:00,
2013-01-13 10:21:00,36.0,36.0,28.73,NW,308,2.4,3.6,100,-99.99,,,-99.99,WSDL version 420,2013-01-13 15:21:00,
2013-01-13 10:27:00,35.9,35.9,28.73,West,270,1.6,3.8,100,-99.99,,,-99.99,WSDL version 420,2013-01-13 15:27:00,
2013-01-13 10:33:00,36.0,36.0,28.73,West,278,4.2,6.3,100,-99.99,,,-99.99,WSDL version 420,2013-01-13 15:33:00,
2013-01-13 10:39:00,36.0,36.0,28.73,West,270,4.0,6.3,100,-99.99,,,-99.99,WSDL version 420,2013-01-13 15:39:00,
2013-01-13 10:45:00,36.0,36.0,28.73,West,270,4.3,4.3,100,-99.99,,,-99.99,WSDL version 420,2013-01-13 15:45:00,
2013-01-13 10:51:00,36.0,36.0,28.73,West,270,4.3,4.3,100,-99.99,,,-99.99,WSDL version 420,2013-01-13 15:51:00,
2013-01-13 10:57:00,36.0,36.0,28.73,WNW,293,5.4,5.4,100,-99.99,,,-99.99,WSDL version 420,2013-01-13 15:57:00,
2013-01-13 11:03:00,36.2,36.2,28.73,West,270,1.8,5.4,100,-99.99,,,-99.99,WSDL version 420,2013-01-13 16:03:00,
2013-01-13 11:09:00,36.2,36.2,28.73,WNW,293,2.0,5.4,100,-99.99,,,-99.99,WSDL version 420,2013-01-13 16:09:00,
2013-01-13 11:15:00,36.0,36.0,28.73,NW,315,5.8,5.8,100,-99.99,,,-99.99,WSDL version 420,2013-01-13 16:15:00,
2013-01-13 11:21:00,36.1,36.1,28.73,NW,315,2.7,5.8,100,-99.99,,,-99.99,WSDL version 420,2013-01-13 16:21:00,
2013-01-13 11:27:00,36.2,36.2,28.73,NW,315,5.9,7.2,100,-99.99,,,-99.99,WSDL version 420,2013-01-13 16:27:00,
2013-01-13 11:33:00,36.2,36.2,28.73,NW,315,7.2,7.2,100,-99.99,,,-99.99,WSDL version 420,2013-01-13 16:33:00,
2013-01-13 11:39:00,36.2,36.2,28.73,WNW,293,4.3,7.4,100,-99.99,,,-99.99,WSDL version 420,2013-01-13 16:39:00,
2013-01-13 11:45:00,36.1,36.1,28.73,NNW,338,2.9,7.4,100,-99.99,,,-99.99,WSDL version 420,2013-01-13 16:45:00,
2013-01-13 11:51:00,36.0,36.0,28.73,WNW,293,4.8,5.6,100,-99.99,,,-99.99,WSDL version 420,2013-01-13 16:51:00,
2013-01-13 11:57:00,36.2,36.2,28.73,NW,315,2.9,5.6,100,-99.99,,,-99.99,WSDL version 420,2013-01-13 16:57:00,
2013-01-13 12:03:00,35.9,35.9,28.73,East,90,2.0,5.8,100,-99.99,,,-99.99,WSDL version 420,2013-01-13 17:03:00,
2013-01-13 12:09:00,35.9,35.9,28.70,North,360,1.6,5.8,100,-99.99,,,-99.99,WSDL version 420,2013-01-13 17:09:00,
2013-01-13 12:15:00,36.0,36.0,28.70,NNW,338,3.8,4.7,100,-99.99,,,-99.99,WSDL version 420,2013-01-13 17:15:00,
2013-01-13 12:21:00,36.0,36.0,28.70,WSW,255,2.9,5.6,100,-99.99,,,-99.99,WSDL version 420,2013-01-13 17:21:00,
2013-01-13 12:27:00,36.2,36.2,28.70,West,270,4.3,5.6,100,-99.99,,,-99.99,WSDL version 420,2013-01-13 17:27:00,
2013-01-13 12:33:00,36.2,36.2,28.70,WNW,293,2.9,4.9,100,-99.99,,,-99.99,WSDL version 420,2013-01-13 17:33:00,
2013-01-13 12:39:00,36.1,36.1,28.73,WNW,293,8.1,8.1,100,-99.99,,,-99.99,WSDL version 420,2013-01-13 17:39:00,
2013-01-13 12:45:00,36.0,36.0,28.73,West,270,3.6,8.1,100,-99.99,,,-99.99,WSDL version 420,2013-01-13 17:45:00,
2013-01-13 12:51:00,36.0,36.0,28.73,NW,315,2.8,3.6,100,-99.99,,,-99.99,WSDL version 420,2013-01-13 17:51:00,
2013-01-13 12:57:00,35.9,35.9,28.73,NW,315,7.2,7.2,100,-99.99,,,-99.99,WSDL version 420,2013-01-13 17:57:00,
2013-01-13 13:03:00,35.8,35.8,28.73,NW,304,5.7,7.6,100,-99.99,,,-99.99,WSDL version 420,2013-01-13 18:03:00,
2013-01-13 13:09:00,35.7,35.7,28.73,NW,315,9.6,9.6,100,-99.99,,,-99.99,WSDL version 420,2013-01-13 18:09:00,
2013-01-13 13:15:00,35.9,35.9,28.73,WNW,300,2.2,9.6,100,-99.99,,,-99.99,WSDL version 420,2013-01-13 18:15:00,
2013-01-13 13:21:00,36.0,36.0,28.73,WNW,300,4.9,8.5,100,-99.99,,,-99.99,WSDL version 420,2013-01-13 18:21:00,
2013-01-13 13:27:00,35.9,35.9,28.73,West,270,2.9,6.3,100,-99.99,,,-99.99,WSDL version 420,2013-01-13 18:27:00,
2013-01-13 13:33:00,35.8,35.8,28.73,NW,315,5.6,6.3,100,-99.99,,,-99.99,WSDL version 420,2013-01-13 18:33:00,
2013-01-13 13:39:00,35.7,35.7,28.70,NW,323,4.6,5.8,100,-99.99,,,-99.99,WSDL version 420,2013-01-13 18:39:00,
2013-01-13 13:45:00,35.5,35.5,28.70,NW,315,3.1,5.8,100,-99.99,,,-99.99,WSDL version 420,2013-01-13 18:45:00,
2013-01-13 13:51:00,35.2,35.2,28.70,NW,326,2.7,3.1,100,-99.99,,,-99.99,WSDL version 420,2013-01-13 18:51:00,
2013-01-13 13:57:00,35.5,35.5,28.70,NW,315,3.1,3.1,100,-99.99,,,-99.99,WSDL version 420,2013-01-13 18:57:00,
2013-01-13 14:03:00,35.6,35.6,28.70,North,360,5.6,5.8,100,-99.99,,,-99.99,WSDL version 420,2013-01-13 19:03:00,
2013-01-13 14:09:00,35.7,35.7,28.67,WNW,300,3.4,5.8,100,-99.99,,,-99.99,WSDL version 420,2013-01-13 19:09:00,
2013-01-13 14:15:00,35.9,35.9,28.67,NE,45,2.9,5.6,100,-99.99,,,-99.99,WSDL version 420,2013-01-13 19:15:00,
2013-01-13 14:21:00,35.5,35.5,28.67,NW,315,3.8,3.8,100,-99.99,,,-99.99,WSDL version 420,2013-01-13 19:21:00,
2013-01-13 14:27:00,35.4,35.4,28.64,North,360,5.8,5.8,100,-99.99,,,-99.99,WSDL version 420,2013-01-13 19:27:00,
2013-01-13 14:33:00,35.6,35.6,28.64,North,360,3.1,5.8,100,-99.99,,,-99.99,WSDL version 420,2013-01-13 19:33:00,
2013-01-13 14:39:00,35.6,35.6,28.70,NW,315,6.9,8.1,100,-99.99,,,-99.99,WSDL version 420,2013-01-13 19:39:00,
2013-01-13 14:45:00,35.4,35.4,28.70,NW,315,3.6,8.1,100,-99.99,,,-99.99,WSDL version 420,2013-01-13 19:45:00,
2013-01-13 14:51:00,35.3,35.3,28.70,WNW,293,6.0,8.1,100,-99.99,,,-99.99,WSDL version 420,2013-01-13 19:51:00,
2013-01-13 14:57:00,35.2,35.2,28.70,NW,315,4.5,6.5,100,-99.99,,,-99.99,WSDL version 420,2013-01-13 19:57:00,
2013-01-13 15:03:00,35.0,35.0,28.70,NW,326,4.9,6.5,100,-99.99,,,-99.99,WSDL version 420,2013-01-13 20:03:00,
2013-01-13 15:09:00,34.9,34.9,28.73,WNW,293,6.3,6.3,100,-99.99,,,-99.99,WSDL version 420,2013-01-13 20:09:00,
2013-01-13 15:15:00,34.8,34.8,28.73,WNW,293,4.0,6.3,100,-99.99,,,-99.99,WSDL version 420,2013-01-13 20:15:00,
2013-01-13 15:21:00,34.6,34.6,28.73,NW,315,3.4,4.0,100,-99.99,,,-99.99,WSDL version 420,2013-01-13 20:21:00,
2013-01-13 15:27:00,34.4,34.4,28.73,NW,315,9.6,9.6,100,-99.99,,,-99.99,WSDL version 420,2013-01-13 20:27:00,
2013-01-13 15:33:00,34.1,34.1,28.73,NNW,338,8.1,9.6,100,-99.99,,,-99.99,WSDL version 420,2013-01-13 20:33:00,
2013-01-13 15:39:00,34.0,34.0,28.73,NW,315,4.9,8.1,100,-99.99,,,-99.99,WSDL version 420,2013-01-13 20:39:00,
2013-01-13 15:45:00,34.0,34.0,28.73,WNW,293,5.6,8.1,100,-99.99,,,-99.99,WSDL version 420,2013-01-13 20:45:00,
2013-01-13 15:51:00,33.8,33.8,28.73,WNW,293,5.6,5.6,100,-99.99,,,-99.99,WSDL version 420,2013-01-13 20:51:00,
2013-01-13 15:57:00,33.5,33.5,28.76,NW,315,3.6,8.7,100,-99.99,,,-99.99,WSDL version 420,2013-01-13 20:57:00,
2013-01-13 16:03:00,33.5,33.5,28.76,NW,315,3.6,8.7,100,-99.99,,,-99.99,WSDL version 420,2013-01-13 21:03:00,
2013-01-13 16:09:00,33.3,33.3,28.76,WNW,293,2.2,3.6,100,-99.99,,,-99.99,WSDL version 420,2013-01-13 21:09:00,
2013-01-13 16:15:00,33.1,33.1,28.76,NW,315,7.6,7.6,100,-99.99,,,-99.99,WSDL version 420,2013-01-13 21:15:00,
2013-01-13 16:21:00,33.0,33.0,28.76,NW,315,3.6,7.6,100,-99.99,,,-99.99,WSDL version 420,2013-01-13 21:21:00,
2013-01-13 16:27:00,32.6,32.6,28.73,NW,308,3.1,7.6,100,-99.99,,,-99.99,WSDL version 420,2013-01-13 21:27:00,
2013-01-13 16:33:00,32.7,32.7,28.73,NW,315,3.2,4.9,100,-99.99,,,-99.99,WSDL version 420,2013-01-13 21:33:00,
2013-01-13 16:39:00,32.6,32.6,28.73,North,360,4.3,4.3,100,-99.99,,,-99.99,WSDL version 420,2013-01-13 21:39:00,
2013-01-13 16:45:00,32.6,32.6,28.73,NW,315,3.1,4.3,100,-99.99,,,-99.99,WSDL version 420,2013-01-13 21:45:00,
2013-01-13 16:51:00,32.6,32.6,28.73,NW,315,3.1,3.4,100,-99.99,,,-99.99,WSDL version 420,2013-01-13 21:51:00,
2013-01-13 16:57:00,32.7,32.7,28.76,NW,315,3.4,3.4,100,-99.99,,,-99.99,WSDL version 420,2013-01-13 21:57:00,
2013-01-13 17:03:00,32.7,32.7,28.76,West,270,2.0,3.4,100,-99.99,,,-99.99,WSDL version 420,2013-01-13 22:03:00,
2013-01-13 17:09:00,32.8,32.8,28.76,WSW,240,0.7,2.0,100,-99.99,,,-99.99,WSDL version 420,2013-01-13 22:09:00,
2013-01-13 17:15:00,33.0,33.0,28.76,West,270,3.1,3.1,100,-99.99,,,-99.99,WSDL version 420,2013-01-13 22:15:00,
2013-01-13 17:21:00,32.7,32.7,28.76,West,270,0.0,3.1,100,-99.99,,,-99.99,WSDL version 420,2013-01-13 22:21:00,
2013-01-13 17:27:00,32.9,32.9,28.76,West,270,2.5,3.4,100,-99.99,,,-99.99,WSDL version 420,2013-01-13 22:27:00,
2013-01-13 17:33:00,32.8,32.8,28.76,West,270,2.5,3.4,100,-99.99,,,-99.99,WSDL version 420,2013-01-13 22:33:00,
2013-01-13 17:39:00,32.7,32.7,28.73,WNW,285,4.0,4.3,100,-99.99,,,-99.99,WSDL version 420,2013-01-13 22:39:00,
2013-01-13 17:45:00,32.6,32.6,28.73,North,360,2.5,4.3,100,-99.99,,,-99.99,WSDL version 420,2013-01-13 22:45:00,
2013-01-13 17:51:00,32.6,32.6,28.73,West,270,6.0,6.0,100,-99.99,,,-99.99,WSDL version 420,2013-01-13 22:51:00,
2013-01-13 17:57:00,32.6,32.6,28.76,NW,308,3.7,6.0,100,-99.99,,,-99.99,WSDL version 420,2013-01-13 22:57:00,
2013-01-13 18:03:00,32.6,32.6,28.76,NW,315,4.7,4.7,100,-99.99,,,-99.99,WSDL version 420,2013-01-13 23:03:00,
2013-01-13 18:09:00,32.6,32.6,28.73,NW,315,4.7,4.7,100,-99.99,,,-99.99,WSDL version 420,2013-01-13 23:09:00,
2013-01-13 18:15:00,32.5,32.5,28.73,West,270,3.1,4.7,100,-99.99,,,-99.99,WSDL version 420,2013-01-13 23:15:00,
2013-01-13 18:21:00,32.6,32.6,28.73,NW,315,0.0,4.7,100,-99.99,,,-99.99,WSDL version 420,2013-01-13 23:21:00,
2013-01-13 18:27:00,32.4,32.4,28.76,West,270,3.6,3.6,100,-99.99,,,-99.99,WSDL version 420,2013-01-13 23:27:00,
2013-01-13 18:33:00,32.4,32.4,28.76,WNW,293,3.0,3.6,100,-99.99,,,-99.99,WSDL version 420,2013-01-13 23:33:00,
2013-01-13 18:39:00,32.5,32.5,28.76,WSW,248,1.6,3.4,100,-99.99,,,-99.99,WSDL version 420,2013-01-13 23:39:00,
2013-01-13 18:45:00,32.4,32.4,28.76,West,270,3.4,3.4,100,-99.99,,,-99.99,WSDL version 420,2013-01-13 23:45:00,
2013-01-13 18:51:00,32.5,32.5,28.76,West,270,4.0,4.0,100,-99.99,,,-99.99,WSDL version 420,2013-01-13 23:51:00,
2013-01-13 18:57:00,32.4,32.4,28.79,SW,225,0.9,4.0,100,-99.99,,,-99.99,WSDL version 420,2013-01-13 23:57:00,
2013-01-13 19:03:00,32.1,32.1,28.79,West,270,2.9,3.1,100,-99.99,,,-99.99,WSDL version 420,2013-01-14 00:03:00,
2013-01-13 19:09:00,32.0,32.0,28.79,West,270,2.9,3.1,100,-99.99,,,-99.99,WSDL version 420,2013-01-14 00:09:00,
2013-01-13 19:15:00,32.0,32.0,28.79,WSW,248,0.0,3.6,100,-99.99,,,-99.99,WSDL version 420,2013-01-14 00:15:00,
2013-01-13 19:21:00,31.8,31.8,28.79,West,270,2.5,3.6,100,-99.99,,,-99.99,WSDL version 420,2013-01-14 00:21:00,
2013-01-13 19:27:00,31.8,31.8,28.79,West,270,5.4,5.4,100,-99.99,,,-99.99,WSDL version 420,2013-01-14 00:27:00,
2013-01-13 19:33:00,31.7,31.7,28.79,WNW,300,3.9,5.4,100,-99.99,,,-99.99,WSDL version 420,2013-01-14 00:33:00,
2013-01-13 19:39:00,31.5,31.5,28.79,West,278,3.4,5.4,100,-99.99,,,-99.99,WSDL version 420,2013-01-14 00:39:00,
2013-01-13 19:45:00,31.6,31.6,28.79,West,270,7.8,7.8,100,-99.99,,,-99.99,WSDL version 420,2013-01-14 00:45:00,
2013-01-13 19:51:00,31.5,31.5,28.79,West,270,3.6,7.8,100,-99.99,,,-99.99,WSDL version 420,2013-01-14 00:51:00,
2013-01-13 19:57:00,31.5,31.5,28.79,West,270,3.6,7.8,100,-99.99,,,-99.99,WSDL version 420,2013-01-14 00:57:00,
2013-01-13 20:03:00,31.4,31.4,28.79,West,270,3.6,3.6,100,-99.99,,,-99.99,WSDL version 420,2013-01-14 01:03:00,
2013-01-13 20:09:00,31.2,31.2,28.79,West,270,6.3,6.3,100,-99.99,,,-99.99,WSDL version 420,2013-01-14 01:09:00,
2013-01-13 20:15:00,30.9,30.9,28.79,West,270,5.6,6.3,100,-99.99,,,-99.99,WSDL version 420,2013-01-14 01:15:00,
2013-01-13 20:21:00,30.8,30.8,28.79,West,270,5.6,6.3,100,-99.99,,,-99.99,WSDL version 420,2013-01-14 01:21:00,
2013-01-13 20:27:00,30.8,30.8,28.82,West,270,5.6,5.6,100,-99.99,,,-99.99,WSDL version 420,2013-01-14 01:27:00,
2013-01-13 20:33:00,30.6,30.6,28.82,West,270,4.0,5.6,100,-99.99,,,-99.99,WSDL version 420,2013-01-14 01:33:00,
2013-01-13 20:39:00,30.3,30.3,28.82,West,270,3.1,4.0,100,-99.99,,,-99.99,WSDL version 420,2013-01-14 01:39:00,
2013-01-13 20:45:00,30.2,30.2,28.82,West,270,7.4,7.4,100,-99.99,,,-99.99,WSDL version 420,2013-01-14 01:45:00,
2013-01-13 20:51:00,30.2,30.2,28.82,West,270,7.4,7.4,100,-99.99,,,-99.99,WSDL version 420,2013-01-14 01:51:00,
2013-01-13 20:57:00,30.2,30.2,28.82,West,270,7.4,7.4,100,-99.99,,,-99.99,WSDL version 420,2013-01-14 01:57:00,
2013-01-13 21:03:00,30.0,30.0,28.82,North,-999,-999.0,-999.0,100,-99.99,,,-99.99,WSDL version 420,2013-01-14 02:03:00,
2013-01-13 21:09:00,30.0,30.0,28.82,North,-999,-999.0,-999.0,100,-99.99,,,-99.99,WSDL version 420,2013-01-14 02:09:00,
2013-01-13 21:15:00,30.0,30.0,28.82,North,-999,-999.0,-999.0,100,-99.99,,,-99.99,WSDL version 420,2013-01-14 02:15:00,
2013-01-13 21:21:00,30.0,30.0,28.82,North,-999,-999.0,-999.0,100,-99.99,,,-99.99,WSDL version 420,2013-01-14 02:21:00,
2013-01-13 21:27:00,29.9,29.9,28.82,North,-999,-999.0,-999.0,100,-99.99,,,-99.99,WSDL version 420,2013-01-14 02:27:00,
2013-01-13 21:33:00,29.9,29.9,28.82,West,270,4.3,5.8,100,-99.99,,,-99.99,WSDL version 420,2013-01-14 02:33:00,
2013-01-13 21:39:00,29.7,29.7,28.82,West,270,5.8,5.8,100,-99.99,,,-99.99,WSDL version 420,2013-01-14 02:39:00,
2013-01-13 21:45:00,29.7,29.7,28.82,West,270,5.8,5.8,100,-99.99,,,-99.99,WSDL version 420,2013-01-14 02:45:00,
2013-01-13 21:51:00,29.7,29.7,28.82,North,-999,-999.0,-999.0,100,-99.99,,,-99.99,WSDL version 420,2013-01-14 02:51:00,
2013-01-13 21:57:00,29.5,29.5,28.82,WNW,293,5.6,5.6,100,-99.99,,,-99.99,WSDL version 420,2013-01-14 02:57:00,
2013-01-13 22:03:00,29.2,29.2,28.82,West,270,9.8,9.8,100,-99.99,,,-99.99,WSDL version 420,2013-01-14 03:03:00,
2013-01-13 22:09:00,29.0,29.0,28.85,West,270,8.9,9.8,100,-99.99,,,-99.99,WSDL version 420,2013-01-14 03:09:00,
2013-01-13 22:15:00,28.8,28.8,28.85,West,270,8.1,9.8,100,-99.99,,,-99.99,WSDL version 420,2013-01-14 03:15:00,
2013-01-13 22:21:00,28.8,28.8,28.85,West,270,8.1,8.1,100,-99.99,,,-99.99,WSDL version 420,2013-01-14 03:21:00,
2013-01-13 22:27:00,28.6,28.6,28.85,North,-999,-999.0,-999.0,100,-99.99,,,-99.99,WSDL version 420,2013-01-14 03:27:00,
2013-01-13 22:33:00,28.5,28.5,28.85,North,-999,-999.0,-999.0,100,-99.99,,,-99.99,WSDL version 420,2013-01-14 03:33:00,
2013-01-13 22:39:00,28.2,28.2,28.85,North,-999,-999.0,-999.0,100,-99.99,,,-99.99,WSDL version 420,2013-01-14 03:39:00,
2013-01-13 22:45:00,27.9,27.7,28.85,North,-999,-999.0,-999.0,99,-99.99,,,-99.99,WSDL version 420,2013-01-14 03:45:00,
2013-01-13 22:51:00,27.7,27.5,28.85,West,270,6.3,6.3,99,-99.99,,,-99.99,WSDL version 420,2013-01-14 03:51:00,
2013-01-13 22:57:00,27.6,27.2,28.85,West,270,6.3,6.3,98,-99.99,,,-99.99,WSDL version 420,2013-01-14 03:57:00,
2013-01-13 23:03:00,27.4,26.9,28.85,West,270,6.3,6.3,98,-99.99,,,-99.99,WSDL version 420,2013-01-14 04:03:00,
2013-01-13 23:09:00,27.4,26.8,28.85,NW,315,9.6,13.0,97,-99.99,,,-99.99,WSDL version 420,2013-01-14 04:09:00,
2013-01-13 23:15:00,27.2,26.5,28.85,North,360,13.0,13.0,97,-99.99,,,-99.99,WSDL version 420,2013-01-14 04:15:00,
2013-01-13 23:21:00,27.0,26.0,28.85,North,360,13.0,13.0,96,-99.99,,,-99.99,WSDL version 420,2013-01-14 04:21:00,
2013-01-13 23:27:00,27.0,25.9,28.88,North,-999,-999.0,-999.0,94,-99.99,,,-99.99,WSDL version 420,2013-01-14 04:27:00,
2013-01-13 23:33:00,26.9,25.7,28.88,WNW,293,7.6,7.6,94,-99.99,,,-99.99,WSDL version 420,2013-01-14 04:33:00,
2013-01-13 23:39:00,26.8,25.3,28.88,WNW,293,7.6,7.6,93,-99.99,,,-99.99,WSDL version 420,2013-01-14 04:39:00,
2013-01-13 23:45:00,26.6,25.1,28.88,North,-999,-999.0,-999.0,93,-99.99,,,-99.99,WSDL version 420,2013-01-14 04:45:00,
2013-01-13 23:51:00,26.4,24.8,28.88,NW,315,14.8,14.8,92,-99.99,,,-99.99,WSDL version 420,2013-01-14 04:51:00,
2013-01-13 23:57:00,26.4,24.7,28.88,NW,315,14.8,14.8,92,-99.99,,,-99.99,WSDL version 420,2013-01-14 04:57:00,